Wetterdaten: aktuell Montag, 17.02.2020 07:52
Datum Zeit Temp. I. Temp. 2m Temp 5cm LF I. Luftf.2m Luftdruck Regen Wind Richtung Richtung Taupunkt Windchill Windben
17.02.2020 07:52 21,7 C 0,7 C 0,8 C 43 % 93 % 1018,3 hPa 0,0 l/m 0,0 km/h (0 Bft) W 262 -0,3 C 0,7 C 0,0 km/h (0 Bft)
17.02.2020 07:50 21,7 C 0,7 C 0,5 C 43 % 93 % 1018,3 hPa 0,0 l/m 0,0 km/h (0 Bft) W 262 -0,3 C 0,7 C 0,0 km/h (0 Bft)
17.02.2020 07:48 21,7 C 0,7 C 0,5 C 43 % 93 % 1018,3 hPa 0,0 l/m 0,0 km/h (0 Bft) W 262 -0,3 C 0,7 C 0,0 km/h (0 Bft)
17.02.2020 07:46 21,8 C 0,7 C 0,4 C 43 % 93 % 1018,3 hPa 0,0 l/m 0,0 km/h (0 Bft) W 262 -0,3 C 0,7 C 0,0 km/h (0 Bft)
17.02.2020 07:44 21,7 C 0,7 C 0,6 C 43 % 93 % 1018,3 hPa 0,0 l/m 0,0 km/h (0 Bft) W 262 -0,3 C 0,7 C 0,0 km/h (0 Bft)
17.02.2020 07:42 21,7 C 0,7 C 0,3 C 43 % 93 % 1018,3 hPa 0,0 l/m 0,0 km/h (0 Bft) W 262 -0,3 C 0,7 C 0,0 km/h (0 Bft)
17.02.2020 07:40 21,7 C 0,6 C 0,0 C 43 % 93 % 1018,3 hPa 0,0 l/m 0,0 km/h (0 Bft) W 262 -0,4 C 0,6 C 0,0 km/h (0 Bft)
17.02.2020 07:38 21,7 C 0,6 C -0,1 C 43 % 93 % 1018,2 hPa 0,0 l/m 0,0 km/h (0 Bft) W 262 -0,4 C 0,6 C 0,0 km/h (0 Bft)
17.02.2020 07:36 21,7 C 0,6 C -0,1 C 43 % 93 % 1018,2 hPa 0,0 l/m 0,0 km/h (0 Bft) W 262 -0,4 C 0,6 C 0,0 km/h (0 Bft)
17.02.2020 07:34 21,7 C 0,6 C -0,1 C 43 % 93 % 1018,2 hPa 0,0 l/m 0,0 km/h (0 Bft) W 262 -0,4 C 0,6 C 0,0 km/h (0 Bft)
17.02.2020 07:32 21,7 C 0,6 C -0,3 C 43 % 93 % 1018,2 hPa 0,0 l/m 0,0 km/h (0 Bft) W 262 -0,4 C 0,6 C 0,0 km/h (0 Bft)
17.02.2020 07:30 21,7 C 0,5 C -0,2 C 43 % 93 % 1018,2 hPa 0,0 l/m 0,0 km/h (0 Bft) W 262 -0,5 C 0,5 C 0,0 km/h (0 Bft)
17.02.2020 07:28 21,6 C 0,5 C -0,5 C 43 % 92 % 1018,2 hPa 0,0 l/m 0,0 km/h (0 Bft) W 262 -0,6 C 0,5 C 1,9 km/h (1 Bft)
17.02.2020 07:26 21,6 C 0,5 C -0,9 C 43 % 92 % 1018,2 hPa 0,0 l/m 0,0 km/h (0 Bft) W 262 -0,6 C 0,5 C 1,9 km/h (1 Bft)
17.02.2020 07:24 21,6 C 0,5 C -0,3 C 43 % 92 % 1018,2 hPa 0,0 l/m 0,0 km/h (0 Bft) W 262 -0,6 C 0,5 C 0,0 km/h (0 Bft)
17.02.2020 07:22 21,6 C 0,4 C -0,4 C 43 % 92 % 1018,2 hPa 0,0 l/m 0,0 km/h (0 Bft) W 262 -0,7 C 0,4 C 0,0 km/h (0 Bft)
17.02.2020 07:20 21,6 C 0,4 C -0,5 C 43 % 92 % 1018,2 hPa 0,0 l/m 0,2 km/h (0 Bft) W 262 -0,7 C 0,4 C 0,0 km/h (0 Bft)
17.02.2020 07:18 21,6 C 0,4 C -0,5 C 43 % 92 % 1018,1 hPa 0,0 l/m 0,2 km/h (0 Bft) W 262 -0,7 C 0,4 C 0,0 km/h (0 Bft)
17.02.2020 07:16 21,6 C 0,5 C -0,7 C 43 % 92 % 1018,1 hPa 0,0 l/m 0,3 km/h (0 Bft) W 262 -0,6 C 0,5 C 0,0 km/h (0 Bft)
17.02.2020 07:14 21,6 C 0,5 C -0,8 C 43 % 92 % 1018,1 hPa 0,0 l/m 0,6 km/h (0 Bft) W 262 -0,6 C 0,5 C 0,0 km/h (0 Bft)
17.02.2020 07:12 21,6 C 0,6 C 0,0 C 43 % 92 % 1018,1 hPa 0,0 l/m 0,6 km/h (0 Bft) W 262 -0,5 C 0,6 C 3,1 km/h (1 Bft)
17.02.2020 07:10 21,6 C 0,6 C 0,0 C 43 % 92 % 1018,1 hPa 0,0 l/m 0,6 km/h (0 Bft) W 262 -0,5 C 0,6 C 3,1 km/h (1 Bft)
17.02.2020 07:08 21,6 C 0,5 C -0,5 C 43 % 92 % 1018,1 hPa 0,0 l/m 0,5 km/h (0 Bft) W 262 -0,6 C 0,5 C 3,7 km/h (1 Bft)
17.02.2020 07:06 21,6 C 0,4 C -0,5 C 43 % 92 % 1018,1 hPa 0,0 l/m 0,3 km/h (0 Bft) W 262 -0,7 C 0,4 C 3,7 km/h (1 Bft)
17.02.2020 07:04 21,6 C 0,4 C -0,7 C 43 % 92 % 1018,1 hPa 0,0 l/m 0,3 km/h (0 Bft) W 262 -0,7 C 0,4 C 3,7 km/h (1 Bft)
17.02.2020 07:02 21,6 C 0,5 C -0,8 C 43 % 92 % 1018,1 hPa 0,0 l/m 0,0 km/h (0 Bft) W 262 -0,6 C 0,5 C 0,0 km/h (0 Bft)
17.02.2020 07:00 21,6 C 0,5 C -0,9 C 43 % 92 % 1018,1 hPa 0,0 l/m 0,0 km/h (0 Bft) W 262 -0,6 C 0,5 C 0,0 km/h (0 Bft)
17.02.2020 06:58 21,6 C 0,5 C -0,9 C 43 % 92 % 1017,6 hPa 0,0 l/m 0,0 km/h (0 Bft) W 262 -0,6 C 0,5 C 0,0 km/h (0 Bft)
17.02.2020 06:56 21,6 C 0,7 C -0,7 C 43 % 92 % 1017,6 hPa 0,0 l/m 0,0 km/h (0 Bft) W 262 -0,4 C 0,7 C 0,0 km/h (0 Bft)
17.02.2020 06:54 21,6 C 0,7 C -0,5 C 43 % 92 % 1017,6 hPa 0,0 l/m 0,0 km/h (0 Bft) W 262 -0,4 C 0,7 C 0,0 km/h (0 Bft)
17.02.2020 06:52 21,6 C 0,8 C -0,5 C 43 % 92 % 1017,6 hPa 0,0 l/m 0,0 km/h (0 Bft) W 262 -0,3 C 0,8 C 0,0 km/h (0 Bft)
17.02.2020 06:50 21,6 C 0,7 C -0,4 C 43 % 92 % 1017,6 hPa 0,0 l/m 0,2 km/h (0 Bft) W 262 -0,4 C 0,7 C 0,0 km/h (0 Bft)
17.02.2020 06:48 21,6 C 0,7 C -0,5 C 43 % 92 % 1017,6 hPa 0,0 l/m 0,2 km/h (0 Bft) W 262 -0,4 C 0,7 C 0,0 km/h (0 Bft)
17.02.2020 06:46 21,6 C 0,8 C -0,1 C 43 % 93 % 1017,6 hPa 0,0 l/m 0,2 km/h (0 Bft) W 262 -0,2 C 0,8 C 0,0 km/h (0 Bft)
17.02.2020 06:44 21,7 C 0,9 C 0,6 C 43 % 93 % 1017,6 hPa 0,0 l/m 0,2 km/h (0 Bft) W 262 -0,1 C 0,9 C 0,0 km/h (0 Bft)
17.02.2020 06:42 21,6 C 0,7 C 0,4 C 43 % 92 % 1017,6 hPa 0,0 l/m 0,2 km/h (0 Bft) W 262 -0,4 C 0,7 C 0,0 km/h (0 Bft)
17.02.2020 06:40 21,7 C 0,5 C -0,1 C 43 % 92 % 1017,6 hPa 0,0 l/m 0,2 km/h (0 Bft) W 262 -0,6 C 0,5 C 2,3 km/h (1 Bft)
17.02.2020 06:38 21,7 C 0,4 C -0,8 C 43 % 92 % 1018,2 hPa 0,0 l/m 0,2 km/h (0 Bft) W 262 -0,7 C 0,4 C 2,3 km/h (1 Bft)
17.02.2020 06:36 21,7 C 0,4 C -0,5 C 43 % 92 % 1018,2 hPa 0,0 l/m 0,0 km/h (0 Bft) W 262 -0,7 C 0,4 C 0,0 km/h (0 Bft)
17.02.2020 06:34 21,7 C 0,5 C -0,4 C 43 % 92 % 1018,2 hPa 0,0 l/m 0,0 km/h (0 Bft) W 262 -0,6 C 0,5 C 0,0 km/h (0 Bft)
17.02.2020 06:32 21,7 C 0,4 C -0,3 C 43 % 92 % 1018,2 hPa 0,0 l/m 0,3 km/h (0 Bft) W 262 -0,7 C 0,4 C 0,0 km/h (0 Bft)
17.02.2020 06:30 21,7 C 0,4 C -0,7 C 43 % 92 % 1018,2 hPa 0,0 l/m 0,2 km/h (0 Bft) W 262 -0,7 C 0,4 C 0,0 km/h (0 Bft)
17.02.2020 06:28 21,7 C 0,4 C -0,5 C 43 % 92 % 1018,2 hPa 0,0 l/m 0,2 km/h (0 Bft) W 262 -0,7 C 0,4 C 0,0 km/h (0 Bft)
17.02.2020 06:26 21,7 C 0,4 C -0,3 C 43 % 92 % 1018,2 hPa 0,0 l/m 0,2 km/h (0 Bft) W 262 -0,7 C 0,4 C 0,0 km/h (0 Bft)
17.02.2020 06:24 21,7 C 0,4 C -0,9 C 43 % 92 % 1018,2 hPa 0,0 l/m 0,2 km/h (0 Bft) W 262 -0,7 C 0,4 C 2,5 km/h (1 Bft)
17.02.2020 06:22 21,7 C 0,4 C -1,0 C 43 % 92 % 1018,2 hPa 0,0 l/m 0,0 km/h (0 Bft) W 262 -0,7 C 0,4 C 2,5 km/h (1 Bft)
17.02.2020 06:20 21,7 C 0,4 C -1,0 C 43 % 92 % 1018,2 hPa 0,0 l/m 0,0 km/h (0 Bft) W 262 -0,7 C 0,4 C 0,0 km/h (0 Bft)
17.02.2020 06:18 21,8 C 0,4 C -1,0 C 43 % 92 % 1018,2 hPa 0,0 l/m 0,0 km/h (0 Bft) W 262 -0,7 C 0,4 C 0,0 km/h (0 Bft)
17.02.2020 06:16 21,8 C 0,4 C -1,0 C 43 % 92 % 1018,2 hPa 0,0 l/m 0,0 km/h (0 Bft) W 262 -0,7 C 0,4 C 0,0 km/h (0 Bft)
17.02.2020 06:14 21,8 C 0,4 C -0,4 C 43 % 92 % 1018,2 hPa 0,0 l/m 0,0 km/h (0 Bft) W 262 -0,7 C 0,4 C 0,0 km/h (0 Bft)
17.02.2020 06:12 21,8 C 0,4 C -0,5 C 43 % 92 % 1018,2 hPa 0,0 l/m 0,2 km/h (0 Bft) W 262 -0,7 C 0,4 C 0,0 km/h (0 Bft)
17.02.2020 06:10 21,8 C 0,4 C -1,1 C 43 % 92 % 1018,2 hPa 0,0 l/m 0,2 km/h (0 Bft) W 262 -0,7 C 0,4 C 0,0 km/h (0 Bft)
17.02.2020 06:08 21,8 C 0,5 C -1,1 C 43 % 92 % 1018,2 hPa 0,0 l/m 0,2 km/h (0 Bft) W 262 -0,6 C 0,5 C 0,0 km/h (0 Bft)
17.02.2020 06:06 21,8 C 0,6 C -0,9 C 43 % 92 % 1018,2 hPa 0,0 l/m 0,2 km/h (0 Bft) W 262 -0,5 C 0,6 C 0,0 km/h (0 Bft)
17.02.2020 06:04 21,8 C 0,6 C -0,7 C 43 % 92 % 1018,2 hPa 0,0 l/m 0,2 km/h (0 Bft) W 262 -0,5 C 0,6 C 1,9 km/h (1 Bft)
17.02.2020 06:02 21,8 C 0,6 C -0,7 C 43 % 92 % 1018,2 hPa 0,0 l/m 0,0 km/h (0 Bft) W 262 -0,5 C 0,6 C 1,9 km/h (1 Bft)
17.02.2020 06:00 21,8 C 0,7 C -0,8 C 43 % 92 % 1018,2 hPa 0,0 l/m 0,0 km/h (0 Bft) W 262 -0,4 C 0,7 C 0,0 km/h (0 Bft)
17.02.2020 05:58 21,8 C 0,7 C -0,7 C 43 % 92 % 1018,3 hPa 0,0 l/m 0,0 km/h (0 Bft) W 262 -0,4 C 0,7 C 0,0 km/h (0 Bft)
17.02.2020 05:56 21,8 C 0,7 C -0,7 C 43 % 92 % 1018,3 hPa 0,0 l/m 0,0 km/h (0 Bft) W 262 -0,4 C 0,7 C 0,0 km/h (0 Bft)
17.02.2020 05:54 21,8 C 0,7 C 0,0 C 43 % 92 % 1018,3 hPa 0,0 l/m 0,0 km/h (0 Bft) W 262 -0,4 C 0,7 C 0,0 km/h (0 Bft)
17.02.2020 05:52 21,8 C 0,7 C -0,4 C 43 % 92 % 1018,3 hPa 0,0 l/m 0,2 km/h (0 Bft) W 262 -0,4 C 0,7 C 0,0 km/h (0 Bft)
17.02.2020 05:50 21,8 C 0,7 C -0,2 C 43 % 92 % 1018,3 hPa 0,0 l/m 0,2 km/h (0 Bft) W 262 -0,4 C 0,7 C 0,0 km/h (0 Bft)
17.02.2020 05:48 21,8 C 0,7 C -0,1 C 43 % 92 % 1018,3 hPa 0,0 l/m 0,2 km/h (0 Bft) W 262 -0,4 C 0,7 C 0,0 km/h (0 Bft)
17.02.2020 05:46 21,8 C 0,6 C -0,3 C 43 % 92 % 1018,3 hPa 0,0 l/m 0,6 km/h (0 Bft) W 262 -0,5 C 0,6 C 0,0 km/h (0 Bft)
17.02.2020 05:44 21,8 C 0,5 C -0,4 C 43 % 91 % 1018,3 hPa 0,0 l/m 0,8 km/h (0 Bft) W 262 -0,8 C 0,5 C 0,0 km/h (0 Bft)
17.02.2020 05:42 21,8 C 0,5 C -0,1 C 43 % 91 % 1018,3 hPa 0,0 l/m 1,3 km/h (1 Bft) W 262 -0,8 C 0,5 C 0,0 km/h (0 Bft)
17.02.2020 05:40 21,9 C 0,5 C -0,1 C 43 % 91 % 1018,3 hPa 0,0 l/m 1,6 km/h (1 Bft) W 262 -0,8 C 0,5 C 0,0 km/h (0 Bft)
17.02.2020 05:38 21,9 C 0,5 C -0,3 C 43 % 91 % 1018,2 hPa 0,0 l/m 1,6 km/h (1 Bft) W 262 -0,8 C 0,5 C 3,5 km/h (1 Bft)
17.02.2020 05:36 21,9 C 0,7 C -0,3 C 43 % 91 % 1018,2 hPa 0,0 l/m 1,4 km/h (1 Bft) W 262 -0,6 C 0,7 C 3,5 km/h (1 Bft)
17.02.2020 05:34 21,9 C 0,8 C -0,1 C 43 % 91 % 1018,2 hPa 0,0 l/m 1,0 km/h (0 Bft) W 262 -0,5 C 0,8 C 3,1 km/h (1 Bft)
17.02.2020 05:32 21,9 C 0,8 C -0,2 C 43 % 91 % 1018,2 hPa 0,0 l/m 0,8 km/h (0 Bft) W 262 -0,5 C 0,8 C 4,8 km/h (1 Bft)
17.02.2020 05:30 21,9 C 0,9 C 0,0 C 43 % 92 % 1018,2 hPa 0,0 l/m 0,2 km/h (0 Bft) W 262 -0,2 C 0,9 C 4,8 km/h (1 Bft)
17.02.2020 05:28 21,9 C 0,9 C 0,3 C 43 % 92 % 1018,2 hPa 0,0 l/m 0,0 km/h (0 Bft) W 262 -0,2 C 0,9 C 0,0 km/h (0 Bft)
17.02.2020 05:26 21,9 C 0,9 C -0,1 C 43 % 92 % 1018,2 hPa 0,0 l/m 0,0 km/h (0 Bft) W 262 -0,2 C 0,9 C 0,0 km/h (0 Bft)
17.02.2020 05:24 21,9 C 0,8 C -0,2 C 43 % 91 % 1018,2 hPa 0,0 l/m 0,0 km/h (0 Bft) W 262 -0,5 C 0,8 C 0,0 km/h (0 Bft)
17.02.2020 05:22 21,9 C 0,7 C -0,3 C 43 % 91 % 1018,2 hPa 0,0 l/m 0,2 km/h (0 Bft) W 262 -0,6 C 0,7 C 0,0 km/h (0 Bft)
17.02.2020 05:20 21,9 C 0,7 C 0,0 C 43 % 91 % 1018,2 hPa 0,0 l/m 0,2 km/h (0 Bft) W 262 -0,6 C 0,7 C 0,0 km/h (0 Bft)
17.02.2020 05:18 21,9 C 0,7 C -0,1 C 43 % 91 % 1017,9 hPa 0,0 l/m 0,2 km/h (0 Bft) W 262 -0,6 C 0,7 C 0,0 km/h (0 Bft)
17.02.2020 05:16 21,9 C 0,7 C -0,2 C 43 % 91 % 1017,9 hPa 0,0 l/m 0,2 km/h (0 Bft) W 262 -0,6 C 0,7 C 0,0 km/h (0 Bft)
17.02.2020 05:14 21,9 C 0,6 C -0,1 C 43 % 91 % 1017,9 hPa 0,0 l/m 0,3 km/h (0 Bft) W 262 -0,7 C 0,6 C 0,0 km/h (0 Bft)
17.02.2020 05:12 21,9 C 0,7 C -0,5 C 43 % 91 % 1017,9 hPa 0,0 l/m 0,2 km/h (0 Bft) W 262 -0,6 C 0,7 C 0,0 km/h (0 Bft)
17.02.2020 05:10 22,0 C 0,7 C -0,4 C 43 % 91 % 1017,9 hPa 0,0 l/m 0,2 km/h (0 Bft) W 262 -0,6 C 0,7 C 0,0 km/h (0 Bft)
17.02.2020 05:08 21,9 C 0,8 C -0,3 C 43 % 91 % 1017,9 hPa 0,0 l/m 0,2 km/h (0 Bft) W 262 -0,5 C 0,8 C 0,0 km/h (0 Bft)
17.02.2020 05:06 22,0 C 0,8 C 0,3 C 43 % 91 % 1017,9 hPa 0,0 l/m 0,3 km/h (0 Bft) W 262 -0,5 C 0,8 C 2,1 km/h (1 Bft)
17.02.2020 05:04 22,0 C 0,8 C 0,3 C 43 % 91 % 1017,9 hPa 0,0 l/m 0,5 km/h (0 Bft) W 262 -0,5 C 0,8 C 2,1 km/h (1 Bft)
17.02.2020 05:02 22,0 C 0,9 C -0,2 C 43 % 91 % 1017,9 hPa 0,0 l/m 0,3 km/h (0 Bft) W 262 -0,4 C 0,9 C 0,0 km/h (0 Bft)
17.02.2020 05:00 22,0 C 0,9 C -0,1 C 43 % 91 % 1017,9 hPa 0,0 l/m 0,3 km/h (0 Bft) W 262 -0,4 C 0,9 C 0,0 km/h (0 Bft)
17.02.2020 04:58 22,0 C 1,1 C 0,3 C 43 % 91 % 1018,0 hPa 0,0 l/m 0,3 km/h (0 Bft) W 262 -0,2 C 1,1 C 0,0 km/h (0 Bft)
17.02.2020 04:56 22,0 C 1,2 C 0,8 C 43 % 91 % 1018,0 hPa 0,0 l/m 0,3 km/h (0 Bft) W 262 -0,1 C 1,2 C 0,0 km/h (0 Bft)
17.02.2020 04:54 22,0 C 1,2 C 0,7 C 43 % 91 % 1018,0 hPa 0,0 l/m 0,0 km/h (0 Bft) W 262 -0,1 C 1,2 C 0,0 km/h (0 Bft)
17.02.2020 04:52 22,0 C 1,1 C 0,6 C 43 % 91 % 1018,0 hPa 0,0 l/m 0,0 km/h (0 Bft) W 262 -0,2 C 1,1 C 0,0 km/h (0 Bft)
17.02.2020 04:50 22,0 C 1,1 C 0,4 C 43 % 91 % 1018,0 hPa 0,0 l/m 0,2 km/h (0 Bft) W 262 -0,2 C 1,1 C 0,0 km/h (0 Bft)
17.02.2020 04:48 22,0 C 1,1 C 0,4 C 43 % 91 % 1018,0 hPa 0,0 l/m 0,5 km/h (0 Bft) W 262 -0,2 C 1,1 C 0,0 km/h (0 Bft)
17.02.2020 04:46 22,0 C 1,2 C 0,5 C 43 % 91 % 1018,0 hPa 0,0 l/m 0,5 km/h (0 Bft) W 262 -0,1 C 1,2 C 0,0 km/h (0 Bft)
17.02.2020 04:44 22,0 C 1,3 C 1,2 C 43 % 91 % 1018,0 hPa 0,0 l/m 0,6 km/h (0 Bft) W 262 -0,0 C 1,3 C 0,0 km/h (0 Bft)
17.02.2020 04:42 22,0 C 1,2 C 1,3 C 43 % 91 % 1018,0 hPa 0,0 l/m 0,8 km/h (0 Bft) W 262 -0,1 C 1,2 C 0,0 km/h (0 Bft)
17.02.2020 04:40 22,0 C 1,2 C 1,2 C 43 % 91 % 1018,0 hPa 0,0 l/m 0,8 km/h (0 Bft) W 262 -0,1 C 1,2 C 3,5 km/h (1 Bft)
17.02.2020 04:38 22,0 C 1,1 C 0,8 C 43 % 91 % 1018,2 hPa 0,0 l/m 0,5 km/h (0 Bft) W 262 -0,2 C 1,1 C 3,5 km/h (1 Bft)
17.02.2020 04:36 22,0 C 1,1 C 0,5 C 43 % 91 % 1018,2 hPa 0,0 l/m 0,3 km/h (0 Bft) W 262 -0,2 C 1,1 C 0,0 km/h (0 Bft)
17.02.2020 04:34 22,0 C 1,2 C 0,8 C 43 % 91 % 1018,2 hPa 0,0 l/m 0,3 km/h (0 Bft) W 262 -0,1 C 1,2 C 0,0 km/h (0 Bft)
17.02.2020 04:32 22,1 C 1,1 C 0,8 C 43 % 91 % 1018,2 hPa 0,0 l/m 0,2 km/h (0 Bft) W 262 -0,2 C 1,1 C 0,0 km/h (0 Bft)
17.02.2020 04:30 22,0 C 0,9 C 0,6 C 43 % 91 % 1018,2 hPa 0,0 l/m 0,2 km/h (0 Bft) W 262 -0,4 C 0,9 C 0,0 km/h (0 Bft)
17.02.2020 04:28 22,1 C 0,8 C 0,5 C 43 % 90 % 1018,2 hPa 0,0 l/m 0,3 km/h (0 Bft) W 262 -0,6 C 0,8 C 0,0 km/h (0 Bft)
17.02.2020 04:26 22,0 C 0,8 C 0,4 C 43 % 90 % 1018,2 hPa 0,0 l/m 0,3 km/h (0 Bft) W 262 -0,6 C 0,8 C 0,0 km/h (0 Bft)
17.02.2020 04:24 22,1 C 0,7 C 0,1 C 43 % 90 % 1018,2 hPa 0,0 l/m 0,3 km/h (0 Bft) W 262 -0,7 C 0,7 C 2,1 km/h (1 Bft)
17.02.2020 04:22 22,1 C 0,7 C 0,3 C 43 % 90 % 1018,2 hPa 0,0 l/m 0,2 km/h (0 Bft) W 262 -0,7 C 0,7 C 2,1 km/h (1 Bft)
17.02.2020 04:20 22,1 C 0,7 C 0,0 C 43 % 90 % 1018,2 hPa 0,0 l/m 0,2 km/h (0 Bft) W 262 -0,7 C 0,7 C 1,9 km/h (1 Bft)
17.02.2020 04:18 22,1 C 0,6 C -0,5 C 43 % 90 % 1018,1 hPa 0,0 l/m 0,2 km/h (0 Bft) W 262 -0,8 C 0,6 C 1,9 km/h (1 Bft)
17.02.2020 04:16 22,1 C 0,7 C -0,5 C 43 % 90 % 1018,1 hPa 0,0 l/m 0,0 km/h (0 Bft) W 262 -0,7 C 0,7 C 0,0 km/h (0 Bft)
17.02.2020 04:14 22,1 C 0,7 C -0,7 C 43 % 90 % 1018,1 hPa 0,0 l/m 0,0 km/h (0 Bft) W 262 -0,7 C 0,7 C 0,0 km/h (0 Bft)
17.02.2020 04:12 22,1 C 0,8 C -0,8 C 43 % 90 % 1018,1 hPa 0,0 l/m 0,0 km/h (0 Bft) W 262 -0,6 C 0,8 C 0,0 km/h (0 Bft)
17.02.2020 04:10 22,1 C 0,8 C -0,4 C 43 % 90 % 1018,1 hPa 0,0 l/m 0,0 km/h (0 Bft) W 262 -0,6 C 0,8 C 0,0 km/h (0 Bft)
17.02.2020 04:08 22,1 C 0,9 C -0,3 C 43 % 90 % 1018,1 hPa 0,0 l/m 0,0 km/h (0 Bft) W 262 -0,6 C 0,9 C 0,0 km/h (0 Bft)
17.02.2020 04:06 22,1 C 0,9 C -0,8 C 43 % 90 % 1018,1 hPa 0,0 l/m 0,0 km/h (0 Bft) W 262 -0,6 C 0,9 C 0,0 km/h (0 Bft)
17.02.2020 04:04 22,1 C 0,9 C -0,9 C 43 % 90 % 1018,1 hPa 0,0 l/m 0,0 km/h (0 Bft) W 262 -0,6 C 0,9 C 0,0 km/h (0 Bft)
17.02.2020 04:02 22,1 C 0,9 C -0,8 C 43 % 90 % 1018,1 hPa 0,0 l/m 0,0 km/h (0 Bft) W 262 -0,6 C 0,9 C 0,0 km/h (0 Bft)
17.02.2020 04:00 22,1 C 0,9 C -1,0 C 43 % 90 % 1018,1 hPa 0,0 l/m 0,0 km/h (0 Bft) W 262 -0,6 C 0,9 C 0,0 km/h (0 Bft)
17.02.2020 03:58 22,1 C 0,9 C -1,0 C 43 % 90 % 1018,1 hPa 0,0 l/m 0,0 km/h (0 Bft) W 262 -0,6 C 0,9 C 0,0 km/h (0 Bft)
17.02.2020 03:56 22,1 C 1,1 C -0,7 C 43 % 90 % 1018,1 hPa 0,0 l/m 0,0 km/h (0 Bft) W 262 -0,4 C 1,1 C 0,0 km/h (0 Bft)
17.02.2020 03:54 22,1 C 0,9 C -0,4 C 43 % 90 % 1018,1 hPa 0,0 l/m 0,0 km/h (0 Bft) W 262 -0,6 C 0,9 C 3,1 km/h (1 Bft)
17.02.2020 03:52 22,1 C 0,9 C -1,1 C 43 % 90 % 1018,1 hPa 0,0 l/m 0,0 km/h (0 Bft) W 262 -0,6 C 0,9 C 3,1 km/h (1 Bft)
17.02.2020 03:50 22,1 C 0,9 C -0,7 C 43 % 90 % 1018,1 hPa 0,0 l/m 0,0 km/h (0 Bft) W 262 -0,6 C 0,9 C 0,0 km/h (0 Bft)
17.02.2020 03:48 22,2 C 1,1 C -0,7 C 43 % 89 % 1018,1 hPa 0,0 l/m 0,0 km/h (0 Bft) W 262 -0,5 C 1,1 C 0,0 km/h (0 Bft)
17.02.2020 03:46 22,2 C 1,1 C -0,5 C 43 % 90 % 1018,1 hPa 0,0 l/m 0,0 km/h (0 Bft) W 262 -0,4 C 1,1 C 0,0 km/h (0 Bft)
17.02.2020 03:44 22,2 C 1,2 C -0,4 C 43 % 90 % 1018,1 hPa 0,0 l/m 0,0 km/h (0 Bft) W 262 -0,3 C 1,2 C 0,0 km/h (0 Bft)
17.02.2020 03:42 22,2 C 1,2 C -0,1 C 43 % 90 % 1018,1 hPa 0,0 l/m 0,0 km/h (0 Bft) W 262 -0,3 C 1,2 C 0,0 km/h (0 Bft)
17.02.2020 03:40 22,2 C 1,2 C 0,1 C 43 % 90 % 1018,1 hPa 0,0 l/m 0,0 km/h (0 Bft) W 262 -0,3 C 1,2 C 0,0 km/h (0 Bft)
17.02.2020 03:38 22,2 C 1,2 C -0,1 C 44 % 90 % 1017,9 hPa 0,0 l/m 0,0 km/h (0 Bft) W 262 -0,3 C 1,2 C 0,0 km/h (0 Bft)
17.02.2020 03:36 22,2 C 0,9 C -0,4 C 44 % 90 % 1017,9 hPa 0,0 l/m 0,0 km/h (0 Bft) W 262 -0,6 C 0,9 C 0,0 km/h (0 Bft)
17.02.2020 03:34 22,2 C 0,9 C -0,8 C 44 % 89 % 1017,9 hPa 0,0 l/m 0,0 km/h (0 Bft) W 262 -0,7 C 0,9 C 0,0 km/h (0 Bft)
17.02.2020 03:32 22,2 C 0,8 C -0,7 C 44 % 89 % 1017,9 hPa 0,0 l/m 0,0 km/h (0 Bft) W 262 -0,8 C 0,8 C 0,0 km/h (0 Bft)
17.02.2020 03:30 22,2 C 0,8 C -0,8 C 44 % 89 % 1017,9 hPa 0,0 l/m 0,0 km/h (0 Bft) W 262 -0,8 C 0,8 C 0,0 km/h (0 Bft)
17.02.2020 03:28 22,2 C 0,9 C -0,7 C 44 % 89 % 1017,9 hPa 0,0 l/m 0,0 km/h (0 Bft) W 262 -0,7 C 0,9 C 0,0 km/h (0 Bft)
17.02.2020 03:26 22,2 C 0,9 C -0,2 C 44 % 89 % 1017,9 hPa 0,0 l/m 0,0 km/h (0 Bft) W 262 -0,7 C 0,9 C 0,0 km/h (0 Bft)
17.02.2020 03:24 22,2 C 1,1 C -0,7 C 44 % 89 % 1017,9 hPa 0,0 l/m 0,0 km/h (0 Bft) W 262 -0,5 C 1,1 C 0,0 km/h (0 Bft)
17.02.2020 03:22 22,2 C 1,2 C -0,5 C 44 % 89 % 1017,9 hPa 0,0 l/m 0,0 km/h (0 Bft) W 262 -0,4 C 1,2 C 0,0 km/h (0 Bft)
17.02.2020 03:20 22,2 C 1,2 C -0,1 C 44 % 89 % 1017,9 hPa 0,0 l/m 0,0 km/h (0 Bft) W 262 -0,4 C 1,2 C 0,0 km/h (0 Bft)
17.02.2020 03:18 22,2 C 0,8 C -0,7 C 44 % 89 % 1018,2 hPa 0,0 l/m 0,0 km/h (0 Bft) W 262 -0,8 C 0,8 C 0,0 km/h (0 Bft)
17.02.2020 03:16 22,2 C 0,9 C -0,7 C 44 % 89 % 1018,2 hPa 0,0 l/m 0,2 km/h (0 Bft) W 262 -0,7 C 0,9 C 0,0 km/h (0 Bft)
17.02.2020 03:14 22,2 C 0,9 C -0,4 C 44 % 89 % 1018,2 hPa 0,0 l/m 0,2 km/h (0 Bft) W 262 -0,7 C 0,9 C 0,0 km/h (0 Bft)
17.02.2020 03:12 22,3 C 0,9 C -0,7 C 44 % 89 % 1018,2 hPa 0,0 l/m 0,2 km/h (0 Bft) W 262 -0,7 C 0,9 C 0,0 km/h (0 Bft)
17.02.2020 03:10 22,3 C 0,9 C -0,8 C 44 % 89 % 1018,2 hPa 0,0 l/m 0,3 km/h (0 Bft) W 262 -0,7 C 0,9 C 0,0 km/h (0 Bft)
17.02.2020 03:08 22,3 C 1,0 C -0,4 C 44 % 88 % 1018,2 hPa 0,0 l/m 0,5 km/h (0 Bft) W 262 -0,8 C 1,0 C 0,0 km/h (0 Bft)
17.02.2020 03:06 22,2 C 1,1 C -1,7 C 44 % 88 % 1018,2 hPa 0,0 l/m 0,3 km/h (0 Bft) W 262 -0,7 C 1,1 C 0,0 km/h (0 Bft)
17.02.2020 03:04 22,3 C 1,1 C -1,7 C 44 % 88 % 1018,2 hPa 0,0 l/m 0,3 km/h (0 Bft) W 262 -0,7 C 1,1 C 0,0 km/h (0 Bft)
17.02.2020 03:02 22,3 C 1,3 C -1,7 C 44 % 88 % 1018,2 hPa 0,0 l/m 0,2 km/h (0 Bft) W 262 -0,5 C 1,3 C 0,0 km/h (0 Bft)
17.02.2020 03:00 22,3 C 1,3 C -1,7 C 44 % 88 % 1018,2 hPa 0,0 l/m 0,2 km/h (0 Bft) W 262 -0,5 C 1,3 C 0,0 km/h (0 Bft)
17.02.2020 02:58 22,3 C 1,3 C -1,7 C 44 % 88 % 1018,2 hPa 0,0 l/m 0,0 km/h (0 Bft) W 262 -0,5 C 1,3 C 0,0 km/h (0 Bft)
17.02.2020 02:56 22,3 C 1,4 C -1,7 C 44 % 88 % 1018,2 hPa 0,0 l/m 0,2 km/h (0 Bft) W 262 -0,4 C 1,4 C 0,0 km/h (0 Bft)
17.02.2020 02:54 22,2 C 1,5 C -1,7 C 44 % 89 % 1018,2 hPa 0,0 l/m 0,2 km/h (0 Bft) W 262 -0,1 C 1,5 C 0,0 km/h (0 Bft)
17.02.2020 02:52 22,3 C 1,6 C -1,7 C 44 % 89 % 1018,2 hPa 0,0 l/m 0,2 km/h (0 Bft) W 262 -0,0 C 1,6 C 0,0 km/h (0 Bft)
17.02.2020 02:50 22,2 C 1,5 C -1,7 C 44 % 89 % 1018,2 hPa 0,0 l/m 0,2 km/h (0 Bft) W 262 -0,1 C 1,5 C 2,9 km/h (1 Bft)
17.02.2020 02:48 22,2 C 1,3 C -1,7 C 44 % 89 % 1018,2 hPa 0,0 l/m 0,2 km/h (0 Bft) W 262 -0,3 C 1,3 C 3,1 km/h (1 Bft)
17.02.2020 02:46 22,4 C 1,1 C -1,7 C 44 % 88 % 1018,2 hPa 0,0 l/m 0,0 km/h (0 Bft) W 262 -0,7 C 1,1 C 3,1 km/h (1 Bft)
17.02.2020 02:44 22,4 C 0,8 C -1,7 C 44 % 88 % 1018,2 hPa 0,0 l/m 0,0 km/h (0 Bft) W 262 -1,0 C 0,8 C 0,0 km/h (0 Bft)
17.02.2020 02:42 22,4 C 0,8 C -1,7 C 44 % 88 % 1018,2 hPa 0,0 l/m 0,0 km/h (0 Bft) W 262 -1,0 C 0,8 C 0,0 km/h (0 Bft)
17.02.2020 02:40 22,4 C 0,8 C -1,7 C 44 % 88 % 1018,2 hPa 0,0 l/m 0,0 km/h (0 Bft) W 262 -1,0 C 0,8 C 0,0 km/h (0 Bft)
17.02.2020 02:38 22,4 C 0,7 C -1,7 C 44 % 88 % 1017,9 hPa 0,0 l/m 0,0 km/h (0 Bft) W 262 -1,1 C 0,7 C 0,0 km/h (0 Bft)
17.02.2020 02:36 22,4 C 0,7 C -1,7 C 44 % 88 % 1017,9 hPa 0,0 l/m 0,0 km/h (0 Bft) W 262 -1,1 C 0,7 C 0,0 km/h (0 Bft)
17.02.2020 02:34 22,4 C 0,7 C -1,7 C 44 % 88 % 1017,9 hPa 0,0 l/m 0,0 km/h (0 Bft) W 262 -1,1 C 0,7 C 0,0 km/h (0 Bft)
17.02.2020 02:32 22,4 C 0,7 C -1,7 C 44 % 88 % 1017,9 hPa 0,0 l/m 0,0 km/h (0 Bft) W 262 -1,1 C 0,7 C 0,0 km/h (0 Bft)
17.02.2020 02:30 22,4 C 0,7 C -1,7 C 44 % 88 % 1017,9 hPa 0,0 l/m 0,0 km/h (0 Bft) W 262 -1,1 C 0,7 C 0,0 km/h (0 Bft)
17.02.2020 02:28 22,4 C 0,8 C -1,7 C 44 % 88 % 1017,9 hPa 0,0 l/m 0,0 km/h (0 Bft) W 262 -1,0 C 0,8 C 0,0 km/h (0 Bft)
17.02.2020 02:26 22,4 C 0,8 C -1,7 C 44 % 88 % 1017,9 hPa 0,0 l/m 0,0 km/h (0 Bft) W 262 -1,0 C 0,8 C 0,0 km/h (0 Bft)
17.02.2020 02:24 22,4 C 0,8 C -1,7 C 44 % 88 % 1017,9 hPa 0,0 l/m 0,0 km/h (0 Bft) W 262 -1,0 C 0,8 C 0,0 km/h (0 Bft)
17.02.2020 02:22 22,4 C 0,8 C -1,7 C 44 % 88 % 1017,9 hPa 0,0 l/m 0,2 km/h (0 Bft) W 262 -1,0 C 0,8 C 0,0 km/h (0 Bft)
17.02.2020 02:20 22,4 C 0,9 C -1,2 C 44 % 88 % 1017,9 hPa 0,0 l/m 0,5 km/h (0 Bft) W 262 -0,9 C 0,9 C 0,0 km/h (0 Bft)
17.02.2020 02:18 22,4 C 0,9 C -1,2 C 44 % 88 % 1018,1 hPa 0,0 l/m 0,6 km/h (0 Bft) W 262 -0,9 C 0,9 C 0,0 km/h (0 Bft)
17.02.2020 02:16 22,4 C 0,9 C -1,2 C 44 % 88 % 1018,1 hPa 0,0 l/m 0,6 km/h (0 Bft) W 262 -0,9 C 0,9 C 0,0 km/h (0 Bft)
17.02.2020 02:14 22,4 C 1,1 C -1,2 C 44 % 87 % 1018,1 hPa 0,0 l/m 0,8 km/h (0 Bft) W 262 -0,8 C 1,1 C 0,0 km/h (0 Bft)
17.02.2020 02:12 22,4 C 1,1 C -1,0 C 44 % 87 % 1018,1 hPa 0,0 l/m 1,3 km/h (1 Bft) W 262 -0,8 C 1,1 C 3,5 km/h (1 Bft)
17.02.2020 02:10 22,4 C 1,1 C -1,2 C 44 % 87 % 1018,1 hPa 0,0 l/m 1,1 km/h (1 Bft) W 262 -0,8 C 1,1 C 3,5 km/h (1 Bft)
17.02.2020 02:08 22,4 C 1,2 C -1,1 C 44 % 87 % 1018,1 hPa 0,0 l/m 0,8 km/h (0 Bft) W 262 -0,7 C 1,2 C 2,1 km/h (1 Bft)
17.02.2020 02:06 22,4 C 1,1 C -1,2 C 44 % 87 % 1018,1 hPa 0,0 l/m 1,0 km/h (0 Bft) W 262 -0,8 C 1,1 C 2,7 km/h (1 Bft)
17.02.2020 02:04 22,5 C 1,1 C -1,4 C 44 % 87 % 1018,1 hPa 0,0 l/m 1,1 km/h (1 Bft) W 262 -0,8 C 1,1 C 2,9 km/h (1 Bft)
17.02.2020 02:02 22,5 C 1,1 C -1,6 C 44 % 87 % 1018,1 hPa 0,0 l/m 1,1 km/h (1 Bft) W 262 -0,8 C 1,1 C 2,9 km/h (1 Bft)
17.02.2020 02:00 22,5 C 1,1 C -1,4 C 44 % 87 % 1018,1 hPa 0,0 l/m 0,8 km/h (0 Bft) W 262 -0,8 C 1,1 C 0,0 km/h (0 Bft)
17.02.2020 01:58 22,5 C 1,1 C -1,5 C 44 % 87 % 1018,2 hPa 0,0 l/m 1,1 km/h (1 Bft) W 262 -0,8 C 1,1 C 2,1 km/h (1 Bft)
17.02.2020 01:56 22,5 C 1,3 C -1,2 C 44 % 87 % 1018,2 hPa 0,0 l/m 1,4 km/h (1 Bft) W 262 -0,6 C 1,3 C 2,5 km/h (1 Bft)
17.02.2020 01:54 22,5 C 1,3 C -1,1 C 44 % 87 % 1018,2 hPa 0,0 l/m 1,1 km/h (1 Bft) W 262 -0,6 C 1,3 C 2,5 km/h (1 Bft)
17.02.2020 01:52 22,5 C 1,4 C -1,1 C 44 % 87 % 1018,2 hPa 0,0 l/m 0,8 km/h (0 Bft) W 262 -0,5 C 1,4 C 2,5 km/h (1 Bft)
17.02.2020 01:50 22,5 C 1,4 C -1,6 C 44 % 87 % 1018,2 hPa 0,0 l/m 0,6 km/h (0 Bft) W 262 -0,5 C 1,4 C 2,1 km/h (1 Bft)
17.02.2020 01:48 22,5 C 1,4 C -1,5 C 44 % 87 % 1018,2 hPa 0,0 l/m 0,6 km/h (0 Bft) W 262 -0,5 C 1,4 C 2,5 km/h (1 Bft)
17.02.2020 01:46 22,5 C 1,5 C -1,4 C 44 % 87 % 1018,2 hPa 0,0 l/m 0,3 km/h (0 Bft) W 262 -0,4 C 1,5 C 2,5 km/h (1 Bft)
17.02.2020 01:44 22,5 C 1,6 C 0,3 C 44 % 87 % 1018,2 hPa 0,0 l/m 0,3 km/h (0 Bft) W 262 -0,3 C 1,6 C 0,0 km/h (0 Bft)
17.02.2020 01:42 22,5 C 1,7 C 0,3 C 44 % 87 % 1018,2 hPa 0,0 l/m 0,3 km/h (0 Bft) W 262 -0,2 C 1,7 C 0,0 km/h (0 Bft)
17.02.2020 01:40 22,5 C 1,7 C 0,3 C 44 % 87 % 1018,2 hPa 0,0 l/m 0,3 km/h (0 Bft) W 262 -0,2 C 1,7 C 0,0 km/h (0 Bft)
17.02.2020 01:38 22,5 C 1,8 C 0,3 C 44 % 87 % 1018,1 hPa 0,0 l/m 0,3 km/h (0 Bft) W 262 -0,1 C 1,8 C 0,0 km/h (0 Bft)
17.02.2020 01:36 22,6 C 2,0 C 0,3 C 44 % 87 % 1018,1 hPa 0,0 l/m 0,5 km/h (0 Bft) W 262 0,1 C 2,0 C 0,0 km/h (0 Bft)
17.02.2020 01:34 22,6 C 2,0 C 0,3 C 44 % 87 % 1018,1 hPa 0,0 l/m 0,3 km/h (0 Bft) W 262 0,1 C 2,0 C 0,0 km/h (0 Bft)
17.02.2020 01:32 22,5 C 2,0 C 0,3 C 44 % 87 % 1018,1 hPa 0,0 l/m 0,3 km/h (0 Bft) W 262 0,1 C 2,0 C 0,0 km/h (0 Bft)
17.02.2020 01:30 22,6 C 2,0 C 0,3 C 44 % 87 % 1018,1 hPa 0,0 l/m 0,3 km/h (0 Bft) W 262 0,1 C 2,0 C 1,9 km/h (1 Bft)
17.02.2020 01:28 22,6 C 2,0 C 0,3 C 44 % 87 % 1018,1 hPa 0,0 l/m 0,2 km/h (0 Bft) W 262 0,1 C 2,0 C 1,9 km/h (1 Bft)
17.02.2020 01:26 22,6 C 1,8 C 0,3 C 44 % 87 % 1018,1 hPa 0,0 l/m 0,2 km/h (0 Bft) W 262 -0,1 C 1,8 C 1,9 km/h (1 Bft)
17.02.2020 01:24 22,6 C 1,8 C 0,3 C 44 % 87 % 1018,1 hPa 0,0 l/m 0,0 km/h (0 Bft) W 262 -0,1 C 1,8 C 1,9 km/h (1 Bft)
17.02.2020 01:22 22,6 C 1,8 C 0,3 C 44 % 87 % 1018,1 hPa 0,0 l/m 0,0 km/h (0 Bft) W 262 -0,1 C 1,8 C 0,0 km/h (0 Bft)
17.02.2020 01:20 22,6 C 2,0 C 0,3 C 44 % 87 % 1018,1 hPa 0,0 l/m 0,0 km/h (0 Bft) W 262 0,1 C 2,0 C 0,0 km/h (0 Bft)
17.02.2020 01:18 22,6 C 2,1 C 0,3 C 44 % 87 % 1017,6 hPa 0,0 l/m 0,0 km/h (0 Bft) W 262 0,2 C 2,1 C 0,0 km/h (0 Bft)
17.02.2020 01:16 22,6 C 2,2 C 0,3 C 44 % 87 % 1017,6 hPa 0,0 l/m 0,2 km/h (0 Bft) W 262 0,3 C 2,2 C 0,0 km/h (0 Bft)
17.02.2020 01:14 22,6 C 2,3 C 0,3 C 44 % 87 % 1017,6 hPa 0,0 l/m 0,3 km/h (0 Bft) W 262 0,4 C 2,3 C 0,0 km/h (0 Bft)
17.02.2020 01:12 22,6 C 2,3 C 0,3 C 44 % 87 % 1017,6 hPa 0,0 l/m 0,3 km/h (0 Bft) W 262 0,4 C 2,3 C 0,0 km/h (0 Bft)
17.02.2020 01:10 22,6 C 2,4 C 0,9 C 44 % 87 % 1017,6 hPa 0,0 l/m 0,3 km/h (0 Bft) W 262 0,5 C 2,4 C 0,0 km/h (0 Bft)
17.02.2020 01:08 22,7 C 2,4 C 0,9 C 44 % 87 % 1017,6 hPa 0,0 l/m 0,3 km/h (0 Bft) W 262 0,5 C 2,4 C 1,9 km/h (1 Bft)
17.02.2020 01:06 22,6 C 2,4 C 0,9 C 44 % 87 % 1017,6 hPa 0,0 l/m 0,2 km/h (0 Bft) W 262 0,5 C 2,4 C 1,9 km/h (1 Bft)
17.02.2020 01:04 22,7 C 2,5 C 0,8 C 44 % 87 % 1017,6 hPa 0,0 l/m 0,0 km/h (0 Bft) W 262 0,6 C 2,5 C 0,0 km/h (0 Bft)
17.02.2020 01:02 22,6 C 2,7 C 1,0 C 44 % 87 % 1017,6 hPa 0,0 l/m 0,0 km/h (0 Bft) W 262 0,8 C 2,7 C 0,0 km/h (0 Bft)
17.02.2020 01:00 22,6 C 2,7 C 1,1 C 44 % 87 % 1017,6 hPa 0,0 l/m 0,0 km/h (0 Bft) W 262 0,8 C 2,7 C 0,0 km/h (0 Bft)
17.02.2020 00:58 22,6 C 2,7 C 1,1 C 44 % 87 % 1017,4 hPa 0,0 l/m 0,0 km/h (0 Bft) W 262 0,8 C 2,7 C 0,0 km/h (0 Bft)
17.02.2020 00:56 22,7 C 2,7 C 1,4 C 44 % 87 % 1017,4 hPa 0,0 l/m 0,2 km/h (0 Bft) W 262 0,8 C 2,7 C 0,0 km/h (0 Bft)
17.02.2020 00:54 22,7 C 2,9 C 1,4 C 44 % 87 % 1017,4 hPa 0,0 l/m 0,5 km/h (0 Bft) W 262 1,0 C 2,9 C 0,0 km/h (0 Bft)
17.02.2020 00:52 22,7 C 3,0 C 1,4 C 44 % 86 % 1017,4 hPa 0,0 l/m 0,6 km/h (0 Bft) W 262 0,9 C 3,0 C 0,0 km/h (0 Bft)
17.02.2020 00:50 22,7 C 3,1 C 1,6 C 44 % 87 % 1017,4 hPa 0,0 l/m 0,8 km/h (0 Bft) W 262 1,2 C 3,1 C 0,0 km/h (0 Bft)
17.02.2020 00:48 22,7 C 3,1 C 1,6 C 44 % 86 % 1017,4 hPa 0,0 l/m 0,8 km/h (0 Bft) W 262 1,0 C 3,1 C 2,3 km/h (1 Bft)
17.02.2020 00:46 22,7 C 2,9 C 0,3 C 44 % 87 % 1017,4 hPa 0,0 l/m 0,6 km/h (0 Bft) W 262 1,0 C 2,9 C 5,0 km/h (1 Bft)
17.02.2020 00:44 22,7 C 2,5 C 0,3 C 44 % 87 % 1017,4 hPa 0,0 l/m 0,6 km/h (0 Bft) W 262 0,6 C 2,5 C 5,0 km/h (1 Bft)
17.02.2020 00:42 22,7 C 2,4 C 0,3 C 44 % 86 % 1017,4 hPa 0,0 l/m 0,3 km/h (0 Bft) W-SW 240 0,3 C 2,4 C 4,1 km/h (1 Bft)
17.02.2020 00:40 22,7 C 2,2 C 0,3 C 44 % 86 % 1017,4 hPa 0,0 l/m 0,2 km/h (0 Bft) W 262 0,1 C 2,2 C 3,7 km/h (1 Bft)
17.02.2020 00:38 22,8 C 2,1 C 0,3 C 44 % 86 % 1017,6 hPa 0,0 l/m 0,0 km/h (0 Bft) W 262 0,0 C 2,1 C 0,0 km/h (0 Bft)
17.02.2020 00:36 22,8 C 2,1 C 0,5 C 44 % 86 % 1017,6 hPa 0,0 l/m 0,0 km/h (0 Bft) W 262 0,0 C 2,1 C 0,0 km/h (0 Bft)
17.02.2020 00:34 22,8 C 2,2 C 0,7 C 44 % 86 % 1017,6 hPa 0,0 l/m 0,0 km/h (0 Bft) W 262 0,1 C 2,2 C 0,0 km/h (0 Bft)
17.02.2020 00:32 22,8 C 2,1 C 0,6 C 44 % 86 % 1017,6 hPa 0,0 l/m 0,0 km/h (0 Bft) W 262 0,0 C 2,1 C 0,0 km/h (0 Bft)
17.02.2020 00:30 22,8 C 2,0 C 0,3 C 44 % 86 % 1017,6 hPa 0,0 l/m 0,0 km/h (0 Bft) W 262 -0,1 C 2,0 C 0,0 km/h (0 Bft)
17.02.2020 00:28 22,8 C 2,0 C 0,3 C 44 % 86 % 1017,6 hPa 0,0 l/m 0,3 km/h (0 Bft) W 262 -0,1 C 2,0 C 0,0 km/h (0 Bft)
17.02.2020 00:26 22,8 C 1,8 C 0,2 C 44 % 86 % 1017,6 hPa 0,0 l/m 0,5 km/h (0 Bft) W 262 -0,3 C 1,8 C 0,0 km/h (0 Bft)
17.02.2020 00:24 22,8 C 1,8 C 0,5 C 44 % 86 % 1017,6 hPa 0,0 l/m 1,0 km/h (0 Bft) W 262 -0,3 C 1,8 C 0,0 km/h (0 Bft)
17.02.2020 00:22 22,8 C 1,8 C 0,5 C 44 % 86 % 1017,6 hPa 0,0 l/m 1,1 km/h (1 Bft) W 262 -0,3 C 1,8 C 0,0 km/h (0 Bft)
17.02.2020 00:20 22,8 C 1,8 C 0,3 C 44 % 86 % 1017,6 hPa 0,0 l/m 1,4 km/h (1 Bft) W 262 -0,3 C 1,8 C 2,7 km/h (1 Bft)
17.02.2020 00:18 22,8 C 1,8 C 0,5 C 44 % 85 % 1017,9 hPa 0,0 l/m 1,6 km/h (1 Bft) W 262 -0,4 C 1,8 C 5,2 km/h (1 Bft)
17.02.2020 00:16 22,8 C 1,8 C 0,6 C 44 % 85 % 1017,9 hPa 0,0 l/m 1,4 km/h (1 Bft) W 262 -0,4 C 1,8 C 2,7 km/h (1 Bft)
17.02.2020 00:14 22,8 C 1,8 C 0,3 C 44 % 85 % 1017,9 hPa 0,0 l/m 1,3 km/h (1 Bft) W 262 -0,4 C 1,8 C 2,7 km/h (1 Bft)
17.02.2020 00:12 22,8 C 1,8 C 0,3 C 44 % 85 % 1017,9 hPa 0,0 l/m 1,3 km/h (1 Bft) W 262 -0,4 C 1,8 C 2,7 km/h (1 Bft)
17.02.2020 00:10 22,9 C 1,8 C 0,1 C 44 % 85 % 1017,9 hPa 0,0 l/m 1,6 km/h (1 Bft) W 262 -0,4 C 1,8 C 2,7 km/h (1 Bft)
17.02.2020 00:08 22,8 C 1,8 C 0,0 C 44 % 85 % 1017,9 hPa 0,0 l/m 1,8 km/h (1 Bft) W 262 -0,4 C 1,8 C 2,7 km/h (1 Bft)
17.02.2020 00:06 22,9 C 1,8 C 0,1 C 44 % 85 % 1017,9 hPa 0,0 l/m 1,9 km/h (1 Bft) W 262 -0,4 C 1,8 C 2,7 km/h (1 Bft)
17.02.2020 00:04 22,9 C 1,8 C 0,6 C 44 % 85 % 1017,9 hPa 0,0 l/m 2,1 km/h (1 Bft) W 262 -0,4 C 1,8 C 2,7 km/h (1 Bft)
17.02.2020 00:02 22,9 C 1,8 C 0,8 C 44 % 85 % 1017,9 hPa 0,0 l/m 1,9 km/h (1 Bft) W 262 -0,4 C 1,8 C 2,5 km/h (1 Bft)
17.02.2020 00:00 22,9 C 1,8 C 0,8 C 44 % 85 % 1017,9 hPa 0,0 l/m 1,9 km/h (1 Bft) W 262 -0,4 C 1,8 C 2,9 km/h (1 Bft)
_ Min-Zeit 06:42 06:10 02:22 03:40 00:00 00:40 - 00:30 - - 02:30 06:10 00:22
Minimum _ 21,6 C 0,4 C -1,7 C 43 % 85 % 1017,4 hPa - 0,0 km/h (0 Bft) - - -1,1 C 0,4 C 0,0 km/h (0 Bft)
_ Max-Zeit 00:00 00:48 00:48 00:00 06:44 05:40 00:00 00:04 - - 00:50 00:48 00:18
Maximum _ 22,9 C 3,1 C 1,6 C 44 % 93 % 1018,3 hPa 0,0 l/m 2,1 km/h
W (1 Bft)
- - 1,2 C 3,1 C 5,2 km/h
W (1 Bft)
Durchschnitt _ 22,2 C 1,1 C -0,3 C 43 % 89 % 1018,0 hPa #0,0 l/m 0,3 km/h (0 Bft) W - -0,4 C 1,1 C 0,8 km/h (0 Bft)